TimeEDT,TemperatureF,Dew PointF,Humidity,Sea Level PressureIn,VisibilityMPH,Wind Direction,Wind SpeedMPH,Gust SpeedMPH,PrecipitationIn,Events,Conditions,WindDirDegrees,DateUTC
12:51 AM,77.0,66.0,69,30.04,10.0,WSW,8.1,-,N/A,,Scattered Clouds,250,2013-07-09 04:51:00
1:51 AM,75.9,66.0,71,30.04,10.0,WSW,10.4,-,N/A,,Scattered Clouds,240,2013-07-09 05:51:00
2:51 AM,75.0,66.0,73,30.04,10.0,WSW,6.9,-,N/A,,Scattered Clouds,240,2013-07-09 06:51:00
3:51 AM,73.9,66.9,79,30.04,10.0,SW,5.8,-,N/A,,Scattered Clouds,230,2013-07-09 07:51:00
4:51 AM,73.9,66.9,79,30.05,10.0,SW,5.8,-,N/A,,Scattered Clouds,230,2013-07-09 08:51:00
5:51 AM,73.0,66.9,81,30.05,10.0,Calm,Calm,-,N/A,,Scattered Clouds,0,2013-07-09 09:51:00
6:51 AM,75.0,69.1,82,30.06,9.0,SW,5.8,-,N/A,,Scattered Clouds,220,2013-07-09 10:51:00
7:51 AM,78.1,68.0,71,30.07,10.0,WSW,5.8,-,N/A,,Mostly Cloudy,250,2013-07-09 11:51:00
8:51 AM,80.1,69.1,69,30.07,10.0,WSW,3.5,-,N/A,,Mostly Cloudy,250,2013-07-09 12:51:00
9:51 AM,84.0,69.1,61,30.06,10.0,West,3.5,-,N/A,,Mostly Cloudy,280,2013-07-09 13:51:00
10:51 AM,86.0,68.0,55,30.06,10.0,WSW,9.2,-,N/A,,Mostly Cloudy,240,2013-07-09 14:51:00
11:51 AM,89.1,66.0,46,30.05,10.0,West,9.2,-,N/A,,Mostly Cloudy,260,2013-07-09 15:51:00
12:51 PM,89.1,64.9,45,30.04,10.0,West,10.4,-,N/A,,Mostly Cloudy,270,2013-07-09 16:51:00
1:51 PM,91.0,66.0,44,30.03,10.0,SW,11.5,21.9,N/A,,Mostly Cloudy,220,2013-07-09 17:51:00
2:51 PM,90.0,68.0,48,30.02,10.0,SW,13.8,-,N/A,,Mostly Cloudy,220,2013-07-09 18:51:00
3:51 PM,91.0,66.9,45,30.00,10.0,WSW,15.0,23.0,N/A,,Mostly Cloudy,250,2013-07-09 19:51:00
4:51 PM,89.1,69.1,52,30.00,10.0,WSW,13.8,18.4,N/A,,Mostly Cloudy,240,2013-07-09 20:51:00
5:51 PM,89.1,66.0,46,29.99,10.0,WSW,15.0,-,N/A,,Mostly Cloudy,250,2013-07-09 21:51:00
6:51 PM,88.0,66.0,48,29.99,10.0,West,11.5,-,N/A,,Mostly Cloudy,260,2013-07-09 22:51:00
7:22 PM,87.8,68.0,52,29.99,10.0,WSW,10.4,-,N/A,,Mostly Cloudy,240,2013-07-09 23:22:00
7:51 PM,86.0,68.0,55,29.99,10.0,SW,9.2,-,N/A,,Mostly Cloudy,230,2013-07-09 23:51:00
8:51 PM,77.0,70.0,79,30.00,10.0,West,8.1,-,0.00,Rain,Light Rain,260,2013-07-10 00:51:00
9:51 PM,78.1,69.1,74,30.02,10.0,WSW,5.8,-,0.00,,Mostly Cloudy,240,2013-07-10 01:51:00
10:51 PM,78.1,69.1,74,30.02,10.0,SW,8.1,-,N/A,,Mostly Cloudy,230,2013-07-10 02:51:00
11:51 PM,79.0,69.1,72,30.03,10.0,West,4.6,-,N/A,,Overcast,280,2013-07-10 03:51:00